Location: Ciserano
(45.5833°N, 9.6000°E)
Time: 16:43:36
(UTC+00:00)

FALCON 9 DEB - Pass Details

Date: 13 April 2021
Orbit: 369 x 385 km, 53.0° (Epoch: 10 May)

Event Time Altitude Azimuth Distance (km) Brightness Sun altitude
Exits shadow 02:36:40 16° 329° (NNW) 1,096 5.2 -20.1°
Maximum altitude 02:37:58 20° 2° (N) 945 5.3 -19.9°
Drops below altitude 10° 02:40:21 10° 52° (NE) 1,390 6.9 -19.6°
Sets 02:42:46 0° 71° (ENE) 2,246 8.1 -19.3°
